OH2HCY Weather Reports


time (UTC)temp
C
wind
direction
speed
KPH
gust
KPH
rain 1hr
cm
rain 24hr
cm
rain mn
cm
humidity
%
barometer
mb
20260507065240 10 210 1.6 6.4 0.00 0.00 0.00 33 1012.4
20260507051510 7 104 1.6 6.4 0.00 0.00 0.00 41 1014.0
20260507042058 3 359 1.6 3.2 0.00 0.00 0.00 49 1015.2
20260507035432 2 352 3.2 6.4 0.00 0.00 0.00 53 1015.5
20260507034500 2 358 3.2 6.4 0.00 0.00 0.00 53 1015.5
20260507033605 1 352 3.2 6.4 0.00 0.00 0.00 54 1015.6
20260507032649 1 350 3.2 4.8 0.00 0.00 0.00 54 1015.6
20260507031738 1 354 3.2 4.8 0.00 0.00 0.00 54 1015.5
20260507030850 1 358 3.2 4.8 0.00 0.00 0.00 53 1015.5
20260507025940 1 351 3.2 4.8 0.00 0.00 0.00 54 1015.5
20260507021504 1 359 3.2 6.4 0.00 0.00 0.00 54 1015.5
20260507020600 1 352 3.2 6.4 0.00 0.00 0.00 57 1015.5
20260507015624 1 351 3.2 4.8 0.00 0.00 0.00 55 1015.4
20260507012934 2 359 1.6 4.8 0.00 0.00 0.00 52 1015.2
20260507012050 2 357 3.2 6.4 0.00 0.00 0.00 51 1015.2
20260507011215 2 356 3.2 6.4 0.00 0.00 0.00 52 1015.2
20260507010320 2 355 3.2 6.4 0.00 0.00 0.00 50 1015.1
20260507005440 2 355 1.6 6.4 0.00 0.00 0.00 51 1015.1
20260507003629 2 358 3.2 8.0 0.00 0.00 0.00 49 1015.0
20260507001844 2 359 3.2 8.0 0.00 0.00 0.00 49 1014.9
20260507000930 2 357 3.2 8.0 0.00 0.00 0.00 49 1014.8
20260506235205 3 356 4.8 9.7 0.00 0.00 0.00 50 1014.8
20260506234305 3 355 3.2 9.7 0.00 0.00 0.00 49 1014.7
20260506233420 3 358 3.2 8.0 0.00 0.00 0.00 49 1014.6
20260506232525 3 355 4.8 8.0 0.00 0.00 0.00 49 1014.5
20260506231609 3 357 4.8 9.7 0.00 0.00 0.00 49 1014.4
20260506230712 3 354 4.8 9.7 0.00 0.00 0.00 48 1014.5
20260506225835 3 355 4.8 9.7 0.00 0.00 0.00 48 1014.4
20260506224935 3 355 4.8 9.7 0.00 0.00 0.00 47 1014.4
20260506224035 4 354 4.8 8.0 0.00 0.00 0.00 48 1014.3
20260506223150 4 355 4.8 9.7 0.00 0.00 0.00 48 1014.3
20260506222310 4 356 4.8 8.0 0.00 0.00 0.00 47 1014.3
20260506221415 4 358 4.8 9.7 0.00 0.00 0.00 48 1014.3
20260506220527 4 353 4.8 9.7 0.00 0.00 0.00 51 1014.2
20260506215615 4 351 6.4 8.0 0.00 0.00 0.00 53 1014.1
20260506214715 4 356 4.8 6.4 0.00 0.00 0.00 52 1014.1
20260506213740 3 344 4.8 6.4 0.00 0.00 0.00 59 1014.1
20260506212832 3 344 3.2 6.4 0.00 0.00 0.00 59 1014.0
20260506211935 4 353 3.2 6.4 0.00 0.00 0.00 61 1014.0
20260506211105 4 348 3.2 6.4 0.00 0.00 0.00 63 1013.9
20260506210219 4 342 3.2 4.8 0.00 0.00 0.00 63 1013.8
20260506205345 5 353 1.6 3.2 0.00 0.00 0.00 62 1013.7
20260506204529 4 355 0.0 3.2 0.00 0.00 0.00 63 1013.7
20260506203605 4 289 0.0 1.6 0.00 0.00 0.00 62 1013.7
20260506202716 5 157 0.0 0.0 0.00 0.00 0.00 60 1013.5
20260506201800 5 240 0.0 1.6 0.00 0.00 0.00 58 1013.4
20260506200845 5 235 0.0 1.6 0.00 0.00 0.00 57 1013.3
20260506200015 5 250 0.0 1.6 0.00 0.00 0.00 56 1013.2
20260506195119 6 285 0.0 1.6 0.00 0.00 0.00 55 1013.0
20260506194220 6 214 0.0 1.6 0.00 0.00 0.00 53 1012.7
20260506193320 6 147 0.0 3.2 0.00 0.00 0.00 51 1012.6
20260506192400 7 267 1.6 3.2 0.00 0.00 0.00 49 1012.3
20260506191440 7 251 1.6 4.8 0.00 0.00 0.00 47 1012.2
20260506190550 7 250 3.2 4.8 0.00 0.00 0.00 46 1012.2
20260506185716 7 245 3.2 6.4 0.00 0.00 0.00 46 1012.1
20260506184755 8 230 4.8 8.0 0.00 0.00 0.00 45 1012.0
20260506183850 8 235 3.2 6.4 0.00 0.00 0.00 44 1011.8
20260506182944 8 237 3.2 4.8 0.00 0.00 0.00 44 1011.8
20260506182105 8 249 3.2 4.8 0.00 0.00 0.00 42 1011.7
20260506181205 9 238 3.2 6.4 0.00 0.00 0.00 43 1011.6
20260506180250 9 214 3.2 8.0 0.00 0.00 0.00 43 1011.6
20260506175350 9 196 3.2 6.4 0.00 0.00 0.00 43 1011.5
20260506174442 9 190 4.8 9.7 0.00 0.00 0.00 43 1011.4
20260506173535 9 197 4.8 11.3 0.00 0.00 0.00 42 1011.2
20260506172655 10 205 6.4 17.7 0.00 0.00 0.00 40 1011.1
20260506171805 10 197 6.4 14.5 0.00 0.00 0.00 40 1011.0
20260506170904 10 213 6.4 12.9 0.00 0.00 0.00 39 1010.8
20260506170025 10 216 8.0 16.1 0.00 0.00 0.00 38 1010.8
20260506165043 10 205 8.0 16.1 0.00 0.00 0.00 37 1010.8
20260506164116 10 215 6.4 14.5 0.00 0.00 0.00 39 1010.7
20260506163140 10 218 8.0 17.7 0.00 0.00 0.00 39 1010.8
20260506162233 10 215 9.7 19.3 0.00 0.00 0.00 38 1010.8
20260506161335 10 221 9.7 19.3 0.00 0.00 0.00 38 1010.7
20260506160520 10 221 8.0 16.1 0.00 0.00 0.00 39 1010.7
20260506155552 10 211 9.7 20.9 0.00 0.00 0.00 40 1010.7
20260506154750 10 215 11.3 20.9 0.00 0.00 0.00 39 1010.8
20260506153814 10 212 9.7 20.9 0.00 0.00 0.00 40 1010.7
20260506152850 10 196 9.7 20.9 0.00 0.00 0.00 40 1010.6
20260506151900 10 214 6.4 19.3 0.00 0.00 0.00 38 1010.3
20260506151005 10 220 9.7 24.1 0.00 0.00 0.00 36 1010.2
20260506150055 11 224 8.0 19.3 0.00 0.00 0.00 34 1010.2
20260506145215 10 240 9.7 22.5 0.00 0.00 0.00 33 1010.4
20260506144335 11 239 9.7 24.1 0.00 0.00 0.00 33 1010.3
20260506143500 11 250 9.7 24.1 0.00 0.00 0.00 32 1010.1
20260506142605 11 227 9.7 24.1 0.00 0.00 0.00 31 1010.1
20260506141654 11 230 6.4 16.1 0.00 0.00 0.00 32 1010.0
20260506140750 10 235 11.3 19.3 0.00 0.00 0.00 32 1010.1
20260506135820 11 253 8.0 22.5 0.00 0.00 0.00 30 1009.8
20260506134915 11 228 9.7 19.3 0.00 0.00 0.00 32 1010.0
20260506133948 11 195 8.0 20.9 0.00 0.00 0.00 37 1009.9
20260506133030 10 180 9.7 20.9 0.00 0.00 0.00 40 1010.1
20260506132140 10 186 8.0 22.5 0.00 0.00 0.00 41 1010.2
20260506131225 10 212 11.3 22.5 0.00 0.00 0.00 42 1010.3
20260506130357 11 240 8.0 17.7 0.00 0.00 0.00 36 1010.1
20260506125455 10 244 9.7 22.5 0.00 0.00 0.00 25 1010.3
20260506124535 10 272 8.0 17.7 0.00 0.00 0.00 25 1010.2
20260506123640 10 289 11.3 27.4 0.00 0.00 0.00 27 1010.1
20260506122740 10 330 9.7 20.9 0.00 0.00 0.00 27 1010.1
20260506121855 11 301 6.4 22.5 0.00 0.00 0.00 26 1009.9
20260506121004 10 320 6.4 17.7 0.00 0.00 0.00 25 1009.9
20260506120110 11 294 8.0 19.3 0.00 0.00 0.00 24 1009.7
20260506115145 11 292 11.3 27.4 0.00 0.00 0.00 24 1009.8
20260506114327 11 290 9.7 27.4 0.00 0.00 0.00 25 1009.7
20260506113405 11 259 8.0 20.9 0.00 0.00 0.00 25 1009.7
20260506112510 11 249 9.7 24.1 0.00 0.00 0.00 25 1009.7
20260506111610 10 229 9.7 19.3 0.00 0.00 0.00 26 1010.0
20260506110645 10 279 8.0 19.3 0.00 0.00 0.00 26 1010.1
20260506105743 10 282 11.3 27.4 0.00 0.00 0.00 26 1010.2
20260506104840 10 298 8.0 24.1 0.00 0.00 0.00 26 1009.8
20260506103944 10 283 6.4 22.5 0.00 0.00 0.00 27 1009.9
20260506103040 10 247 9.7 33.8 0.00 0.00 0.00 28 1010.1
20260506102200 10 230 6.4 17.7 0.00 0.00 0.00 28 1010.2
20260506101336 10 264 8.0 17.7 0.00 0.00 0.00 29 1010.4
20260506100415 10 268 8.0 22.5 0.00 0.00 0.00 29 1010.2
20260506095509 10 321 6.4 16.1 0.00 0.00 0.00 28 1010.3
20260506094610 8 312 11.3 24.1 0.00 0.00 0.00 29 1010.3
20260506093805 10 256 6.4 22.5 0.00 0.00 0.00 30 1009.9
20260506092835 10 252 6.4 22.5 0.00 0.00 0.00 30 1009.7
20260506091920 8 244 8.0 19.3 0.00 0.00 0.00 31 1010.5
20260506091028 8 292 8.0 22.5 0.00 0.00 0.00 32 1010.7
20260506090055 8 308 9.7 22.5 0.00 0.00 0.00 34 1010.5
20260506085155 8 282 8.0 22.5 0.00 0.00 0.00 34 1010.6
20260506084240 8 298 6.4 24.1 0.00 0.00 0.00 36 1010.4
20260506083420 8 290 6.4 16.1 0.00 0.00 0.00 37 1010.7
20260506082550 8 263 11.3 27.4 0.00 0.00 0.00 38 1010.6
20260506081632 8 305 8.0 22.5 0.00 0.00 0.00 37 1010.4
20260506080720 8 288 8.0 22.5 0.00 0.00 0.00 38 1010.7
20260506073112 7 271 9.7 20.9 0.00 0.00 0.00 42 1010.4
20260506072235 7 288 6.4 17.7 0.00 0.00 0.00 44 1010.3
20260506071322 7 272 8.0 25.7 0.00 0.00 0.00 45 1010.4
20260506070420 7 281 11.3 25.7 0.00 0.00 0.00 45 1010.4